Flag for Brazil Weather past 2 weeks in Campinas, São Paulo, Brazil

Now
79 °F

Clear.


Feels Like: 80 °F
Forecast: 66 / 79 °F
Wind: 5 mph from South

Location: Campinas Aeroporto

Current Time: May 25, 2015 at 9:14:22 PM

Latest Report: May 25, 2015 at 8:00 PM


Visibility: 10 mi

Pressure: 30.09 "Hg

Humidity: 51%

Dew point: 59 °F

Location of CampinasLocation

Historic Weather in Campinas — Graph

°F

Campinas temperature yesterday

Maximum temperature yesterday: 79 °F (at 2:00 PM)
Minimum temperature yesterday: 57 °F (at 7:00 AM)
Average temperature yesterday: 69 °F

Past Weeks' High & Low Weather Summary

 TemperatureHumidityPressure
High84 °F (May 25, 3:00 PM)100% (May 10, 8:00 PM)30.33 "Hg (May 10, 8:00 PM)
Low55 °F (May 16, 6:00 AM)40% (May 25, 3:00 PM)29.92 "Hg (May 10, 10:00 PM)
Average67 °F77%30.16 "Hg
* Reported May 10 8:00 PM — May 25 8:00 PM, Campinas, Weather by CustomWeather, © 2015

Note: Actual official high and low records may vary slightly from our data, if they occured in-between our weather recording intervals... More about our weather records

Advertising

Campinas weather history for previous 24 hours

 ConditionsComfort  
Time TempWeatherWind HumidityBarometerVisibility
8:00 PM
Mon, May 25
79 °FClear.5 mph51%30.09 "Hg10 mi
7:00 PM79 °FClear.5 mph51%30.09 "Hg10 mi
6:00 PM81 °FClear.3 mph48%30.07 "Hg10 mi
5:00 PM82 °FPassing clouds.5 mph42%30.07 "HgN/A
4:00 PM84 °FSunny.5 mph43%30.07 "Hg10 mi
3:00 PM84 °FSunny.5 mph40%30.07 "Hg10 mi
2:00 PM82 °FSunny.7 mph42%30.07 "Hg10 mi
1:00 PM81 °FSunny.8 mph48%30.09 "Hg10 mi
12:00 PM79 °FSunny.7 mph54%30.09 "Hg10 mi
11:00 AM79 °FSunny.8 mph54%30.12 "Hg10 mi
10:00 AM75 °FSunny.7 mph61%30.12 "Hg10 mi
9:00 AM72 °FClear.5 mph69%30.12 "Hg6 mi
8:00 AM66 °FClear.5 mph83%30.12 "Hg5 mi
7:00 AM61 °FSunny.8 mph100%30.12 "Hg10 mi
6:00 AM61 °FSunny.6 mph100%30.09 "Hg10 mi
5:00 AM63 °FClear.7 mph94%30.09 "Hg10 mi
4:00 AM63 °FClear.6 mph94%30.09 "Hg10 mi
3:00 AM63 °FClear.7 mph94%30.07 "Hg10 mi
2:00 AM64 °FClear.5 mph88%30.09 "Hg10 mi
1:00 AM64 °FClear.9 mph88%30.07 "Hg10 mi
12:00 AM66 °FClear.6 mph83%30.09 "Hg10 mi
11:00 PM
Sun, May 24
68 °FClear.3 mph78%30.09 "Hg10 mi
10:00 PM66 °FClear.6 mph83%30.09 "Hg10 mi
9:00 PM70 °FClear.6 mph73%30.09 "Hg10 mi
Weather by CustomWeather, © 2015

See weather overviewHow to use our weather pages